Temperature
16 16 16 17 13 10 13 14 13 14 14 15 15 15 14 14 14 15 15 15 15 14 14 14 14 14 14 14 14 14 14 14 14 14 14 14 14 14 14 14 15 15 15 15 15 15 15 15 15
16 16 16 16 11 12 13 13 13 14 15 15 15 15 14 13 14 14 14 14 14 14 14 14 14 14 14 14 14 14 14 14 14 14 14 14 14 14 14 14 14 14 15 15 15 15 15 15 15
16 16 16 11 11 12 14 14 13 14 15 15 14 14 14 14 14 14 14 14 14 14 14 14 14 13 13 13 13 14 14 14 14 14 14 14 14 14 14 14 14 14 14 14 14 15 14 15 15
16 16 14 11 12 12 13 14 13 13 15 15 14 13 13 14 14 14 14 14 14 14 13 13 13 13 13 13 13 13 13 13 13 14 14 13 14 14 14 14 14 14 14 14 14 14 14 14 14
16 15 11 11 12 12 12 13 13 13 13 14 14 12 13 13 14 14 14 14 14 13 13 13 13 13 13 13 13 13 13 13 13 13 13 13 13 13 13 14 14 14 14 14 14 14 14 14 14
15 11 10 11 12 12 12 13 14 13 13 13 13 12 13 13 14 14 14 13 13 13 13 13 13 13 13 13 13 13 13 13 13 13 13 13 13 13 13 13 13 13 13 13 14 14 14 14 14
13 9 11 11 11 12 13 14 13 12 13 13 14 12 12 13 13 13 13 13 13 13 13 13 13 13 13 13 13 13 13 13 13 13 13 13 13 13 13 13 13 13 13 13 13 13 13 13 13
14 9 11 10 11 12 13 13 14 14 13 14 14 12 12 13 13 13 13 13 13 12 12 12 12 12 12 12 12 12 12 12 13 12 12 12 12 13 12 13 13 13 13 13 13 13 13 13 13
14 9 10 10 11 12 12 12 13 13 13 13 13 13 13 13 13 13 12 12 12 12 12 12 12 12 12 12 12 12 12 12 12 12 12 12 12 12 12 12 12 12 12 13 13 13 13 13 13
12 9 11 11 11 12 12 12 13 12 12 12 13 13 13 13 13 12 12 12 12 12 12 12 12 12 12 12 12 12 12 12 12 12 12 12 12 12 12 12 12 12 12 12 12 12 12 12 13
10 10 10 11 12 12 12 12 12 12 11 12 13 13 13 13 12 12 12 12 12 12 12 12 12 12 11 11 11 11 11 11 11 11 11 11 11 11 11 12 12 12 12 12 12 12 12 12 12
9 10 10 11 12 12 12 12 11 11 13 13 14 13 13 13 12 12 12 12 12 12 12 12 11 11 11 11 11 11 11 11 11 11 11 11 11 11 11 11 11 11 12 12 12 12 12 12 12
9 10 11 11 11 11 11 11 11 11 13 13 13 13 12 12 12 12 12 12 12 12 11 11 11 11 11 11 11 11 11 11 11 11 11 11 11 11 11 11 11 11 11 11 11 11 11 11 11
9 10 10 11 11 11 10 10 10 11 12 12 12 12 12 12 12 12 12 12 11 11 11 11 11 11 11 11 11 10 10 10 10 10 10 10 10 10 10 10 10 11 11 11 11 11 11 11 11
10 9 9 9 10 10 10 9 8 11 11 11 11 11 11 11 11 11 11 11 11 11 11 11 11 11 11 11 10 10 10 10 10 10 10 10 10 10 10 10 10 10 10 10 10 10 10 10 10
9 8 8 9 9 9 9 9 9 11 10 9 10 10 10 11 11 11 11 11 11 11 11 11 11 10 10 10 10 10 10 10 10 10 10 9 9 10 10 10 10 10 10 10 10 10 10 10 10
8 7 8 8 8 8 8 8 8 9 9 8 9 9 10 10 10 10 10 10 10 10 10 10 10 10 10 10 10 10 10 9 9 9 9 9 9 9 9 9 9 9 9 9 9 9 9 9 9
8 7 7 7 8 7 7 7 8 8 8 8 8 9 9 9 9 10 10 10 10 10 10 10 10 10 10 10 9 9 9 9 9 9 9 9 9 9 9 9 9 9 9 9 9 9 9 9 9
8 7 7 7 8 7 6 7 8 7 7 7 7 7 8 9 9 9 9 10 10 10 10 10 10 9 9 9 9 9 9 9 9 9 9 9 9 9 9 8 8 8 8 8 8 8 8 8 8
7 7 6 7 7 7 6 6 7 6 6 7 6 7 7 8 8 9 9 9 9 10 9 9 9 9 9 9 9 9 9 9 9 9 8 8 8 8 8 8 8 8 8 8 8 8 8 8 8
7 6 7 7 6 6 6 6 6 6 6 6 6 7 7 7 8 8 9 9 9 9 9 9 9 9 9 9 9 8 8 8 8 8 8 8 8 8 8 8 8 8 8 8 8 8 8 8 8
6 7 7 6 6 5 6 5 6 5 5 5 5 6 6 7 7 8 8 8 8 9 9 9 9 9 9 8 8 8 8 8 8 8 8 8 8 8 7 7 7 7 7 8 8 7 7 7 7
6 6 6 6 5 5 5 5 5 5 5 5 4 5 6 6 7 7 7 8 8 8 8 8 8 8 8 8 8 8 8 7 7 7 7 7 7 7 7 7 7 7 7 7 7 7 7 7 7
6 6 5 4 4 5 5 5 5 4 5 5 4 5 5 5 6 6 7 7 7 7 8 8 8 8 8 7 7 7 7 7 7 7 6 6 6 7 7 7 7 7 7 7 7 7 7 7 7
6 5 5 5 4 5 5 5 5 5 4 4 4 4 4 5 5 5 6 7 7 7 7 7 7 7 7 7 7 7 7 6 6 6 6 6 6 6 6 6 6 6 6 6 6 6 6 6 6
5 5 5 5 5 4 4 4 4 4 4 4 4 4 4 4 4 5 5 6 6 6 6 6 6 6 6 6 6 6 6 6 6 6 6 6 6 6 6 6 6 6 6 6 6 6 6 6 6
5 4 5 4 3 3 4 3 3 3 3 3 3 3 4 4 4 4 5 5 5 6 6 6 6 6 6 6 6 6 5 5 5 5 5 5 5 5 5 5 5 5 5 5 5 5 5 5 5
5 4 3 4 4 4 4 4 3 3 3 3 2 2 3 3 3 4 4 5 5 5 5 5 5 5 5 5 5 5 5 5 5 5 5 5 5 5 5 5 5 5 5 5 5 5 5 5 5
3 3 3 3 3 4 4 4 3 3 3 2 2 2 2 3 3 3 3 4 4 4 4 5 5 5 4 4 4 4 4 4 4 4 4 4 4 4 4 4 4 4 4 4 4 4 4 4 4
3 3 2 3 2 2 3 3 3 2 2 1 1 2 2 2 2 2 3 3 3 3 4 4 4 4 4 4 4 4 4 4 4 4 4 4 4 4 4 4 4 4 4 4 4 4 4 4 4
Wind_Speed
5 3 3 4 6 5 2 4 3 2 2 0 1 4 7 5 4 3 1 2 4 5 6 8 8 8 8 8 7 7 7 7 7 7 7 7 7 7 7 7 7 7 8 9 9 10 10 11 11
1 2 5 5 5 1 5 4 4 4 3 3 3 4 4 1 0 2 1 2 4 6 6 7 9 8 8 7 7 7 6 6 6 6 6 6 6 6 6 6 7 7 8 9 9 9 9 10 10
2 4 5 5 4 6 5 4 5 1 1 3 3 3 3 2 2 3 2 4 5 5 6 7 9 8 8 7 7 7 6 6 5 5 6 5 5 5 5 6 6 7 7 8 8 9 9 9 9
4 5 5 4 4 5 5 3 3 1 1 2 4 3 1 1 2 2 4 6 6 5 6 7 8 8 7 7 7 6 6 6 4 5 5 5 5 5 5 6 7 7 7 7 8 8 8 9 9
5 5 4 0 4 4 4 3 3 3 2 1 4 4 1 3 1 4 6 6 6 4 5 6 7 7 7 7 6 6 5 5 4 4 5 5 5 5 5 7 7 7 7 7 8 8 8 8 9
5 5 3 3 5 4 3 3 3 2 2 2 4 4 2 1 2 4 5 5 5 5 4 5 6 7 7 7 6 6 5 5 4 4 5 4 5 5 5 6 6 6 7 7 8 8 8 8 9
5 5 4 5 4 4 3 2 4 4 3 4 5 5 2 2 2 4 4 5 4 4 4 4 5 5 6 6 6 6 5 5 4 4 4 4 4 4 4 5 5 6 6 7 8 8 8 8 9
5 5 2 3 5 5 2 2 2 4 3 2 5 6 5 4 3 4 5 4 4 3 3 3 4 5 5 6 6 6 6 5 5 5 5 4 4 4 4 4 5 5 6 6 7 7 8 8 8
4 4 4 6 7 5 2 2 0 0 3 1 2 4 3 5 6 6 4 2 2 2 1 2 3 3 4 5 5 5 5 6 6 5 5 5 5 4 4 4 5 5 6 6 6 7 7 8 7
4 4 7 4 5 3 2 3 2 2 1 1 1 1 3 6 7 7 6 5 4 3 2 2 2 3 3 4 4 4 4 5 5 5 5 5 5 4 4 5 5 6 6 6 6 7 7 6 6
4 6 4 3 3 2 2 2 2 4 5 6 6 5 5 5 6 6 6 6 5 4 3 2 2 3 4 3 4 3 4 4 4 4 4 4 5 4 4 5 5 5 5 5 5 5 5 5 5
3 3 3 2 1 2 3 2 3 5 7 5 6 6 6 7 7 7 6 5 4 3 3 3 2 3 3 4 3 3 3 3 3 3 4 4 3 3 3 3 3 4 4 4 5 5 5 5 5
2 2 2 2 2 2 1 3 4 6 6 1 3 5 6 6 5 4 4 4 3 3 4 3 3 3 3 3 3 3 2 2 3 3 3 4 3 2 2 3 3 3 4 4 4 4 5 4 4
2 2 3 3 2 2 3 4 3 8 3 2 4 5 6 6 6 4 3 4 4 4 4 3 4 4 4 3 3 3 3 3 3 3 3 4 4 3 3 2 2 2 3 4 4 4 4 4 4
0 1 4 3 2 2 0 6 6 6 2 3 4 4 4 4 4 5 5 4 4 4 3 3 4 3 4 4 3 3 3 3 3 3 3 4 4 4 3 2 2 2 3 4 5 5 4 3 3
2 1 3 4 2 1 3 9 7 3 4 5 4 4 4 4 4 4 3 3 3 3 3 3 3 3 3 3 3 3 3 3 2 3 3 4 4 5 4 3 2 2 3 4 3 3 3 3 3
2 2 4 5 2 2 4 9 7 2 4 5 5 4 4 3 3 3 2 2 2 3 3 3 2 3 3 3 3 3 3 3 2 3 3 3 4 4 4 3 2 3 3 3 3 3 3 3 3
4 4 4 5 3 2 5 10 9 4 4 5 5 4 4 4 5 3 2 2 2 2 2 2 2 2 3 2 2 2 2 2 2 2 2 3 3 4 4 3 3 3 3 2 2 3 2 3 3
3 4 6 6 3 3 8 12 12 6 4 5 5 5 5 6 4 2 2 1 1 1 1 2 2 2 3 3 3 2 2 1 1 1 2 3 3 4 4 3 3 3 3 3 3 3 3 2 2
4 5 6 5 2 4 6 11 10 5 5 6 6 6 6 4 2 2 1 1 1 2 1 2 2 3 3 3 3 2 2 2 2 1 2 2 3 3 3 3 2 2 3 3 3 3 2 1 1
6 7 6 6 5 2 4 8 5 3 2 2 3 4 4 5 5 4 2 2 1 1 2 2 2 3 3 3 3 3 2 2 1 1 1 1 2 3 3 3 2 2 3 3 4 4 3 2 1
7 5 6 4 2 4 1 5 6 4 4 4 5 4 4 4 4 3 3 2 2 2 1 1 2 2 3 3 4 5 3 2 2 2 1 1 2 2 2 3 2 2 2 3 4 3 3 4 3
5 3 4 4 4 3 2 4 7 2 4 6 5 4 4 3 3 3 3 3 1 1 1 1 2 2 2 3 4 5 3 2 2 2 2 1 1 1 1 2 2 2 2 2 3 3 3 3 3
1 2 2 2 2 5 6 5 7 3 4 5 5 4 3 1 0 0 1 1 1 2 2 2 2 2 2 3 3 4 4 3 3 2 2 1 1 1 1 1 1 1 2 2 3 3 4 3 3
2 2 2 2 1 7 3 5 7 4 3 3 4 3 2 0 1 1 1 1 2 2 2 2 2 2 3 3 3 3 3 4 3 2 2 1 1 0 1 1 1 1 1 1 2 2 3 3 3
4 5 4 4 5 4 2 6 5 3 4 3 3 3 3 2 2 1 1 2 2 2 2 2 3 3 3 3 3 2 3 2 2 1 1 1 1 1 1 1 1 1 1 1 1 2 2 2 2
2 4 3 3 2 4 5 5 5 4 5 5 5 4 3 2 2 1 2 2 2 2 2 2 3 3 3 3 3 3 3 2 2 1 1 1 0 0 1 1 1 1 1 1 2 1 2 2 2
2 3 2 2 3 5 5 4 3 4 5 5 5 4 3 3 2 2 2 2 2 2 3 3 4 3 2 3 3 3 2 2 2 2 1 0 1 1 1 1 0 0 1 1 2 1 2 2 2
0 1 1 2 3 3 4 4 2 2 3 4 4 4 2 2 1 2 2 3 3 3 4 4 4 4 3 3 3 3 2 2 2 1 1 0 1 1 1 1 1 1 1 0 1 1 2 2 2
2 3 2 3 4 3 3 5 3 2 4 4 4 4 3 3 3 3 3 3 4 4 3 3 3 4 3 3 3 3 2 2 2 1 1 1 1 1 1 1 1 1 1 0 1 2 2 2 2
Wind_Direction
1 50 74 57 57 54 230 244 219 228 216 224 120 126 138 144 162 179 223 136 134 139 145 145 142 140 133 127 124 121 119 118 116 114 113 113 114 114 113 114 112 113 111 106 106 105 102 98 98
24 72 56 61 93 134 258 240 217 218 190 130 82 95 99 108 121 125 157 165 136 134 134 139 138 137 136 131 129 128 125 124 122 121 120 120 120 119 116 117 114 113 114 109 108 108 106 103 103
92 53 81 80 130 186 223 223 209 238 186 143 99 75 126 154 165 175 199 152 122 119 128 138 138 136 137 136 133 132 131 129 122 125 126 127 126 123 123 122 116 113 114 112 109 112 111 108 105
79 49 58 85 203 222 225 236 198 138 56 81 117 96 77 19 204 193 141 133 124 118 125 135 141 138 135 135 136 137 139 135 127 129 132 130 128 127 126 127 121 119 118 116 114 115 112 110 108
57 77 74 37 243 253 246 243 188 159 157 107 123 134 174 339 50 122 131 134 135 126 124 133 140 138 133 130 129 131 137 142 136 133 134 134 131 127 127 128 127 127 124 121 121 122 118 115 115
58 72 109 222 243 266 259 220 162 150 155 132 129 139 214 311 111 135 137 136 133 130 123 133 135 132 132 131 130 126 125 126 130 138 138 133 133 133 130 135 137 134 133 127 125 123 125 124 120
112 114 179 205 230 257 240 175 162 162 170 193 157 142 237 253 172 137 128 128 119 118 113 113 124 126 127 128 134 130 126 124 121 120 120 120 124 129 136 141 143 144 141 135 129 125 124 124 122
125 117 168 207 211 241 229 157 173 163 192 167 146 155 207 215 145 114 106 106 114 111 111 106 117 122 124 127 133 137 125 116 113 106 100 101 102 103 111 135 136 138 140 136 131 127 126 126 125
95 96 206 213 203 235 193 153 244 122 128 136 187 193 205 143 127 120 113 107 129 134 128 120 121 125 131 134 134 133 125 115 108 99 95 98 94 97 101 120 136 136 133 130 131 128 127 125 125
102 172 220 216 201 210 196 188 190 111 143 215 305 333 119 133 146 155 163 173 179 184 187 165 150 144 137 132 123 120 119 114 106 100 95 100 101 99 102 105 117 121 119 118 127 125 120 117 114
156 194 222 244 227 201 197 213 188 158 226 219 209 193 162 160 167 178 186 187 195 193 186 188 172 149 142 131 128 121 113 109 107 106 103 102 101 98 97 95 102 104 102 99 110 108 106 107 110
172 236 227 257 224 183 204 205 217 206 232 223 197 173 168 178 189 195 199 202 197 185 192 193 177 156 151 142 136 133 124 118 116 121 126 115 98 98 105 99 106 111 111 109 109 108 104 103 110
202 259 258 260 263 229 220 233 239 250 260 236 159 161 176 190 198 202 200 200 194 197 201 196 187 176 161 146 144 141 141 140 149 143 139 136 123 124 120 111 108 115 121 120 117 117 113 107 100
226 257 291 291 260 240 225 264 241 258 240 175 171 187 194 196 197 191 195 204 205 208 212 204 193 180 162 162 162 159 154 153 152 154 153 149 146 144 136 121 112 119 126 125 122 119 114 107 104
250 317 316 282 235 251 204 287 240 248 160 191 208 213 215 214 202 202 203 203 209 211 210 201 194 177 168 168 166 157 154 153 150 159 155 146 145 148 143 130 119 126 127 125 116 109 104 100 96
51 28 294 287 211 210 156 266 272 242 180 221 234 232 224 227 219 221 216 208 204 193 193 201 186 171 179 173 162 152 146 140 145 152 152 150 148 150 142 134 122 129 125 121 125 122 112 102 100
35 266 261 290 234 172 195 259 286 283 196 227 233 230 224 235 247 245 223 209 197 189 186 190 172 171 181 178 154 137 128 121 121 129 136 142 139 145 140 136 135 131 121 119 134 125 127 125 111
239 241 254 257 262 197 237 260 281 284 227 235 236 231 226 230 241 239 224 218 189 168 168 177 168 171 167 160 133 120 108 105 101 109 121 126 131 132 128 125 123 128 128 124 129 131 117 126 127
198 225 258 260 255 233 249 266 274 265 244 243 240 238 237 239 247 225 203 173 132 117 124 164 171 176 162 162 160 158 165 155 125 103 110 126 129 127 126 126 128 137 142 147 141 127 121 122 133
225 250 261 280 265 241 268 273 274 254 232 230 231 235 235 240 258 239 193 149 161 167 169 172 181 178 175 173 171 165 162 165 158 125 98 116 133 134 138 135 154 157 141 140 146 138 136 139 130
242 229 241 262 319 298 306 295 274 270 245 273 265 251 238 222 219 216 202 202 186 181 193 190 192 180 170 156 137 120 100 84 89 106 106 92 127 135 139 150 152 158 161 170 170 165 155 161 174
254 237 238 249 276 273 211 284 281 274 297 302 297 279 263 246 222 204 193 195 204 211 197 176 173 165 160 147 145 148 149 157 178 172 160 90 107 120 130 138 146 156 172 180 184 179 171 163 173
240 277 250 240 216 262 232 235 279 310 298 299 297 286 282 245 207 196 193 193 198 173 143 139 136 145 149 148 154 153 144 152 142 138 132 118 94 100 118 134 143 156 176 184 182 182 176 173 178
229 18 17 74 121 253 225 207 274 258 275 298 304 302 301 261 200 191 143 120 75 72 79 95 123 130 137 143 149 153 151 142 130 129 150 155 152 124 87 116 125 146 169 184 190 188 182 182 179
96 90 357 329 260 249 203 211 252 270 286 281 294 310 327 48 87 60 58 75 76 71 71 89 116 118 123 128 132 145 151 149 155 164 161 165 170 162 205 125 134 144 171 175 175 179 185 183 183
215 175 188 228 243 277 249 231 259 304 335 346 357 4 26 37 46 55 50 79 85 73 68 81 101 100 106 114 116 113 117 127 131 136 142 168 194 195 180 163 157 142 152 154 154 171 181 184 193
199 216 197 181 236 255 256 274 307 346 358 5 7 18 22 26 33 28 40 61 73 74 63 72 92 88 85 90 93 91 94 100 105 103 93 135 105 105 117 140 149 143 131 147 160 169 189 189 200
194 181 118 176 229 254 269 267 275 313 328 346 352 350 351 5 18 33 41 48 59 70 65 70 75 82 84 83 83 86 82 86 90 98 103 81 56 66 102 105 121 120 112 156 165 180 192 189 208
246 172 196 210 217 221 261 270 273 254 311 324 319 333 346 3 32 35 30 40 53 60 66 66 67 66 62 68 79 80 77 74 78 88 91 103 77 79 93 113 97 85 66 111 162 191 194 200 211
209 196 170 212 251 231 247 272 341 350 351 353 344 354 10 32 30 33 36 44 48 52 58 60 60 63 56 56 71 73 73 75 74 64 47 58 60 59 83 99 102 82 49 44 195 209 210 211 222
Height
1497 1498 1500 1502 1507 1520 1520 1514 1510 1508 1507 1505 1505 1506 1507 1510 1513 1517 1513 1512 1513 1515 1517 1519 1520 1522 1523 1524 1525 1526 1527 1528 1529 1530 1531 1532 1532 1533 1534 1535 1536 1537 1538 1539 1540 1541 1542 1543 1544
1498 1499 1502 1503 1514 1525 1520 1510 1509 1506 1504 1505 1505 1506 1507 1508 1509 1510 1510 1512 1513 1515 1517 1518 1520 1521 1522 1524 1524 1525 1527 1528 1529 1529 1530 1531 1532 1533 1534 1535 1536 1537 1538 1539 1540 1542 1543 1544 1545
1498 1500 1502 1506 1517 1520 1512 1505 1505 1504 1504 1504 1505 1506 1507 1508 1509 1509 1510 1512 1513 1515 1516 1518 1519 1521 1522 1523 1524 1525 1526 1527 1528 1529 1530 1531 1532 1533 1534 1535 1536 1537 1538 1540 1541 1542 1543 1544 1545
1499 1501 1503 1511 1514 1512 1507 1503 1503 1503 1503 1504 1505 1507 1507 1509 1509 1510 1510 1512 1513 1515 1516 1517 1519 1520 1521 1522 1523 1524 1525 1526 1527 1528 1529 1530 1531 1532 1533 1534 1535 1537 1538 1539 1540 1542 1543 1544 1545
1499 1500 1508 1515 1511 1507 1504 1502 1502 1502 1503 1503 1504 1506 1507 1508 1508 1509 1510 1512 1513 1514 1516 1517 1518 1519 1520 1521 1522 1523 1524 1525 1526 1527 1528 1529 1530 1531 1532 1533 1535 1536 1537 1539 1540 1541 1542 1544 1545
1499 1501 1515 1516 1510 1505 1502 1501 1501 1502 1502 1503 1504 1505 1506 1507 1507 1509 1510 1511 1513 1514 1515 1516 1517 1518 1519 1520 1521 1522 1523 1524 1525 1526 1527 1529 1529 1530 1531 1533 1534 1535 1536 1538 1539 1540 1542 1543 1544
1500 1506 1511 1510 1509 1504 1501 1499 1500 1501 1501 1502 1503 1505 1505 1506 1507 1508 1510 1511 1512 1513 1514 1515 1516 1517 1518 1519 1520 1521 1522 1523 1524 1525 1526 1527 1529 1530 1531 1532 1533 1534 1536 1537 1538 1539 1541 1542 1544
1498 1504 1508 1510 1508 1503 1499 1498 1499 1499 1500 1502 1503 1503 1503 1505 1506 1508 1509 1510 1511 1512 1514 1514 1515 1516 1517 1518 1519 1520 1521 1522 1523 1524 1525 1526 1527 1528 1530 1531 1532 1533 1535 1536 1537 1539 1540 1542 1543
1498 1507 1509 1506 1504 1499 1497 1498 1498 1499 1499 1500 1501 1501 1502 1503 1505 1506 1508 1509 1510 1511 1512 1513 1514 1515 1516 1517 1518 1519 1520 1521 1522 1523 1524 1525 1526 1527 1528 1530 1531 1532 1533 1535 1536 1538 1539 1541 1542
1498 1506 1502 1498 1497 1496 1496 1497 1497 1498 1499 1499 1499 1500 1501 1502 1503 1505 1506 1507 1508 1509 1511 1511 1512 1513 1514 1515 1516 1517 1518 1519 1520 1521 1522 1524 1525 1526 1527 1528 1530 1531 1532 1533 1535 1536 1538 1539 1541
1496 1500 1497 1495 1495 1495 1495 1496 1496 1497 1498 1496 1496 1497 1499 1500 1502 1503 1504 1505 1506 1508 1509 1509 1511 1512 1513 1514 1515 1516 1517 1518 1519 1520 1521 1522 1523 1525 1526 1527 1528 1529 1530 1532 1533 1535 1536 1538 1540
1496 1495 1495 1494 1494 1494 1495 1495 1495 1494 1493 1494 1495 1496 1496 1498 1499 1501 1502 1503 1504 1505 1506 1507 1508 1510 1511 1512 1513 1514 1515 1516 1517 1518 1519 1520 1521 1523 1524 1525 1526 1528 1529 1530 1532 1533 1535 1537 1538
1496 1495 1494 1494 1494 1494 1494 1493 1493 1491 1491 1491 1492 1493 1494 1495 1497 1498 1500 1501 1502 1503 1504 1505 1506 1507 1508 1510 1511 1512 1513 1514 1515 1516 1517 1518 1520 1521 1522 1523 1525 1526 1527 1529 1530 1532 1533 1535 1537
1494 1494 1493 1493 1492 1493 1493 1491 1492 1487 1488 1489 1489 1490 1491 1493 1494 1496 1497 1498 1499 1500 1501 1502 1504 1505 1506 1507 1509 1510 1511 1512 1513 1514 1515 1516 1518 1519 1520 1521 1523 1524 1526 1527 1529 1530 1532 1533 1535
1493 1494 1493 1492 1491 1492 1493 1491 1488 1485 1486 1487 1487 1488 1489 1490 1492 1493 1494 1495 1496 1497 1498 1500 1501 1503 1504 1505 1506 1507 1508 1510 1511 1512 1513 1514 1516 1517 1518 1519 1521 1522 1524 1525 1527 1529 1530 1531 1533
1494 1496 1498 1492 1491 1491 1495 1492 1484 1483 1484 1484 1485 1486 1486 1487 1489 1490 1491 1493 1493 1495 1496 1497 1499 1500 1502 1503 1504 1505 1506 1507 1509 1510 1511 1512 1513 1515 1516 1517 1519 1520 1522 1523 1525 1526 1528 1529 1531
1498 1501 1499 1494 1490 1491 1493 1490 1483 1482 1482 1482 1482 1483 1484 1484 1485 1487 1488 1489 1490 1492 1493 1494 1496 1497 1499 1501 1502 1503 1504 1505 1507 1508 1509 1510 1511 1512 1514 1515 1517 1518 1520 1521 1523 1524 1526 1527 1529
1499 1500 1498 1496 1490 1491 1492 1487 1482 1481 1480 1479 1479 1480 1481 1481 1482 1484 1485 1487 1488 1489 1490 1492 1493 1495 1496 1498 1499 1501 1502 1503 1505 1506 1507 1508 1509 1510 1512 1513 1515 1516 1518 1519 1521 1522 1524 1526 1527
1495 1497 1497 1493 1490 1491 1489 1485 1479 1478 1478 1477 1477 1477 1477 1478 1480 1481 1483 1484 1485 1486 1487 1489 1490 1492 1493 1494 1496 1497 1499 1501 1502 1503 1504 1506 1507 1508 1509 1511 1512 1514 1516 1517 1519 1520 1522 1523 1525
1494 1495 1495 1491 1489 1490 1488 1483 1476 1475 1474 1474 1473 1473 1474 1475 1476 1477 1479 1480 1481 1483 1484 1485 1487 1489 1490 1491 1493 1495 1497 1498 1500 1501 1502 1503 1504 1505 1507 1508 1510 1512 1513 1515 1516 1518 1519 1521 1523
1492 1493 1492 1492 1490 1488 1488 1481 1475 1472 1471 1471 1470 1470 1470 1470 1471 1473 1475 1477 1478 1480 1481 1482 1484 1485 1487 1489 1490 1492 1494 1496 1497 1498 1499 1501 1502 1503 1504 1506 1507 1509 1511 1512 1514 1516 1517 1519 1521
1491 1488 1488 1489 1493 1494 1491 1490 1475 1472 1470 1468 1467 1466 1466 1467 1468 1470 1472 1474 1475 1477 1478 1480 1481 1482 1484 1486 1487 1489 1490 1492 1493 1495 1497 1498 1499 1500 1502 1503 1504 1506 1507 1509 1511 1513 1514 1516 1518
1488 1486 1487 1488 1491 1494 1492 1493 1478 1474 1471 1467 1465 1464 1463 1464 1465 1467 1469 1471 1473 1474 1476 1477 1478 1480 1481 1483 1485 1486 1488 1489 1491 1493 1494 1495 1497 1498 1499 1500 1502 1503 1504 1506 1507 1509 1511 1513 1514
1487 1488 1488 1491 1493 1492 1488 1491 1479 1476 1470 1466 1464 1463 1462 1463 1464 1465 1467 1469 1470 1472 1473 1474 1476 1477 1479 1481 1482 1484 1486 1487 1489 1490 1491 1493 1494 1495 1497 1498 1499 1500 1501 1502 1504 1505 1507 1509 1511
1487 1491 1494 1493 1495 1487 1484 1485 1477 1470 1468 1466 1464 1463 1462 1463 1463 1464 1465 1467 1468 1470 1471 1472 1474 1475 1477 1478 1480 1482 1484 1485 1486 1488 1489 1490 1491 1492 1493 1494 1496 1497 1498 1499 1501 1502 1503 1505 1507
1487 1488 1493 1495 1493 1489 1485 1483 1475 1469 1467 1465 1464 1463 1463 1463 1463 1464 1465 1466 1467 1469 1470 1471 1472 1473 1475 1477 1478 1480 1482 1483 1484 1485 1486 1488 1489 1489 1491 1492 1493 1494 1495 1496 1497 1498 1500 1502 1503
1487 1488 1487 1494 1495 1494 1486 1481 1474 1468 1466 1465 1464 1463 1462 1462 1463 1464 1464 1465 1466 1468 1469 1470 1471 1472 1474 1475 1477 1478 1480 1481 1482 1483 1484 1485 1486 1487 1488 1489 1490 1491 1492 1493 1494 1495 1497 1498 1499
1485 1487 1491 1492 1490 1486 1481 1480 1476 1470 1468 1467 1466 1464 1463 1463 1463 1464 1464 1465 1466 1467 1468 1469 1470 1471 1473 1474 1475 1477 1478 1479 1480 1481 1482 1483 1484 1484 1485 1486 1487 1488 1489 1490 1491 1492 1493 1495 1495
1488 1489 1488 1490 1488 1487 1484 1479 1472 1471 1469 1468 1466 1465 1464 1464 1463 1464 1464 1465 1465 1466 1467 1468 1469 1471 1472 1473 1474 1475 1476 1477 1479 1479 1480 1481 1481 1482 1482 1483 1484 1485 1486 1487 1488 1489 1490 1491 1492
1486 1487 1489 1492 1491 1489 1485 1482 1471 1471 1470 1469 1467 1466 1465 1465 1464 1464 1464 1464 1465 1465 1466 1467 1468 1470 1471 1472 1473 1474 1475 1475 1476 1477 1478 1478 1479 1479 1480 1480 1481 1482 1483 1484 1485 1486 1486 1487 1488